Starlink 3701

operational
NORAD ID: 52095 Int'l Des: 2022-029 Owner: SPXS Country: US Constellation: starlink
LEOCIRCULAR

关于 Starlink 3701

正在加载描述...

实时位置

正在加载3D地球...

即将过境

高度历史

Altitude vs Time

uPlot chart will show altitude changes over time

两行轨道根数

1 52095U 22029H 25351.32952665 .00012863 00000-0 82418-3 0 9996
2 52095 53.2172 98.8483 0001195 82.3268 277.7860 15.08866276208228
Epoch: Dec 17, 2025 • Age: 11 hours

当前状态

高度 539.5 km
速度 7.59 km/s
星下点 11.08°N, 92°E
发射日期 Mar 19, 2022
运行时间 3.7 years
类型 internet

技术详情

分类 Payload
质量 297.00 kg
干质量 275.00 kg
总质量 297.00 kg
长度 0.20 m
直径 2.80 m
跨度 9.00 m
形状 Box + pan
制造商 SPXS
平台类型 Starlink
阶段状态 In Orbit
所有者/国家 SPXS/US

大型星座

Loading constellations...